Presure
166 208 190 212 209 203 206 190 187 179 183 190 185 186 198 170 167 197 195 189 190 189 190 182 191 186 177 175 183 184 193 160 190 139 146 204 211 211 203 193 178 193 199 176 168 165 177
154 152 149 158 171 173 186 206 195 202 199 188 187 184 185 177 180 180 179 221 215 178 197 212 216 195 197 198 215 213 216 205 147 201 192 185 216 213 204 95 194 192 182 181 170 164 175
145 209 161 155 173 183 168 164 174 201 163 191 200 192 190 183 184 163 166 176 162 166 171 180 172 173 171 175 172 164 171 175 175 178 90 215 217 203 198 199 181 191 177 195 165 164 164
187 148 148 171 143 151 163 169 157 171 148 175 165 156 160 156 206 203 185 170 186 192 187 171 169 184 170 172 171 182 181 173 167 169 172 117 202 195 197 202 201 189 179 202 165 169 166
159 156 154 157 147 212 160 173 153 155 164 168 173 185 170 192 157 185 170 183 171 181 172 185 193 185 184 181 176 170 169 176 170 169 166 184 208 192 197 221 200 191 199 208 196 159 171
155 157 177 155 153 157 149 136 175 170 160 134 167 142 188 172 159 156 150 164 158 183 174 170 191 186 213 192 182 184 189 183 193 182 171 172 206 195 189 202 211 213 213 210 201 188 169
165 192 187 145 171 165 169 178 202 162 209 202 143 150 177 152 141 152 162 144 157 172 186 151 195 188 196 175 194 190 212 179 193 188 177 171 172 194 193 198 206 189 163 194 193 167 183
167 159 170 161 172 167 169 151 152 174 155 155 182 173 143 148 184 189 151 170 164 176 205 135 220 147 180 152 169 172 185 200 192 183 190 176 166 194 195 186 198 181 168 174 189 212 198
164 161 162 163 160 172 165 187 182 173 177 181 182 172 185 170 168 150 170 207 154 150 168 178 146 148 163 160 166 194 192 173 199 197 175 186 172 172 165 197 198 164 172 174 199 222 206
155 160 162 176 164 160 168 147 133 165 161 169 166 178 179 174 190 196 174 179 153 185 137 145 222 207 179 222 200 168 163 172 185 194 188 171 184 179 171 178 206 177 173 175 172 210 178
117 140 156 165 150 160 172 170 161 175 179 156 193 189 145 187 176 181 199 179 171 170 165 198 183 142 221 154 159 142 214 211 157 182 185 200 179 181 175 177 202 198 172 177 175 172 184
149 148 132 150 159 149 166 172 175 164 172 180 171 175 183 157 180 185 158 189 185 168 163 206 217 197 174 128 222 194 140 202 175 164 208 196 204 192 190 177 183 191 189 177 175 174 172
173 145 144 155 143 171 162 175 142 182 176 171 189 185 173 186 180 182 181 186 167 175 170 215 195 205 200 209 210 213 206 128 197 179 221 181 197 187 172 190 176 177 200 186 174 182 174
146 175 133 155 178 134 156 152 167 166 171 166 158 146 163 166 164 167 165 174 187 193 201 198 207 184 210 204 215 203 189 179 209 214 134 178 189 178 181 186 196 183 178 172 167 261 174
157 134 160 140 163 163 158 162 172 157 165 161 184 172 173 176 176 163 178 181 183 189 170 191 195 194 193 178 211 173 210 180 209 211 217 203 238 196 169 187 195 142 181 155 182 173 184
154 139 162 151 144 137 161 164 166 159 173 175 172 169 167 177 156 174 177 178 192 193 188 184 199 195 195 168 204 203 213 215 188 103 209 208 219 236 197 196 169 174 183 172 179 181 177
162 164 132 157 172 155 160 157 162 150 174 173 177 160 171 172 178 175 179 168 186 184 198 189 206 194 203 194 188 203 204 207 208 210 206 204 179 207 227 223 199 185 176 185 182 174 180
164 153 153 146 159 160 151 161 155 161 171 174 171 167 161 172 178 173 175 186 187 186 195 196 199 196 179 190 181 204 188 198 199 213 207 205 201 195 214 211 220 198 197 180 189 181 173
168 154 162 164 150 163 162 169 176 153 163 175 162 169 175 174 185 171 182 192 176 185 198 196 209 204 197 195 207 210 200 217 219 214 215 203 205 205 187 218 209 220 223 186 179 193 193
149 171 157 158 172 158 170 167 169 160 175 170 179 171 188 193 179 175 185 188 172 194 200 227 217 205 212 206 204 211 202 231 233 221 216 208 205 208 216 216 184 220 207 200 190 202 189
165 151 169 164 163 168 168 172 164 172 170 173 185 189 191 186 181 188 195 182 195 192 217 225 226 212 229 221 256 241 225 241 242 235 226 230 236 238 219 238 236 224 184 206 202 217 199
162 181 183 171 163 172 168 179 183 179 185 187 193 168 189 186 203 182 189 193 208 207 232 238 216 217 230 242 253 262 266 246 245 233 238 236 242 233 236 248 247 252 234 238 229 223 227
175 162 179 179 182 182 170 184 184 185 182 174 189 186 201 202 200 189 198 203 205 216 246 231 218 233 212 259 253 272 227 239 260 260 256 250 253 254 259 253 254 248 250 242 208 245 231
137 189 178 191 185 188 197 201 202 203 211 210 191 214 211 206 203 211 207 235 225 227 241 237 273 286 278 279 276 247 280 285 280 270 265 269 267 262 268 255 255 249 249 234 241 246 246
181 185 192 190 166 182 191 195 199 212 216 215 215 235 241 245 244 241 235 249 239 237 227 297 304 295 294 288 287 292 225 239 238 240 239 245 246 249 258 259 265 261 260 254 249 249 242
180 193 193 185 195 196 187 213 205 213 215 226 240 234 248 253 237 246 250 249 292 310 324 313 310 307 298 263 243 240 247 246 251 258 277 348 349 356 342 335 341 342 337 339 357 359 347
202 205 194 154 210 215 213 208 230 233 235 244 238 240 225 245 237 229 218 294 302 276 259 251 247 244 246 248 250 262 330 400 381 390 381 371 364 338 329 322 319 315 312 305 321 319 312
191 203 209 206 215 221 225 226 221 243 242 239 266 319 298 247 283 283 300 282 261 249 241 254 266 261 263 339 414 398 389 384 379 367 363 344 332 313 307 305 300 298 293 284 284 284 287
215 215 221 240 235 241 247 227 274 227 231 235 313 272 308 303 298 269 264 245 245 259 273 287 302 368 301 386 379 385 374 366 356 351 340 347 316 303 302 300 295 290 287 276 271 269 271
Wind_Speed
11 10 11 14 20 21 25 18 16 19 21 27 28 31 37 38 40 40 44 46 49 50 52 52 56 59 58 57 59 60 60 52 61 46 44 55 50 43 41 42 41 33 28 34 35 36 24
17 16 22 18 18 17 19 16 19 25 27 29 30 29 29 35 31 34 33 36 48 45 47 50 52 58 57 60 56 53 47 45 45 47 48 44 42 40 37 32 39 34 32 35 37 39 29
21 13 22 21 21 20 22 25 23 21 25 22 26 29 34 37 40 45 42 36 48 45 45 47 49 49 48 47 49 51 46 44 44 45 33 47 41 37 40 38 41 38 37 38 44 42 40
11 26 25 25 31 26 27 26 30 28 28 30 29 28 31 32 33 41 41 45 46 48 51 52 53 53 54 50 50 47 47 46 46 45 45 38 45 47 45 45 43 42 42 44 44 44 43
28 33 37 39 32 21 32 29 36 36 36 28 33 28 36 34 37 38 39 42 44 45 46 54 56 56 58 55 53 53 51 50 50 48 47 46 45 49 47 43 44 49 50 46 46 46 47
38 37 19 40 40 32 43 33 32 24 33 36 35 38 28 41 41 38 43 45 42 52 51 53 58 58 57 61 58 57 57 54 52 50 48 44 46 49 53 46 41 44 44 46 53 55 47
29 22 22 42 25 34 33 25 32 43 27 29 43 52 37 48 43 51 51 42 49 52 53 45 59 59 57 53 60 61 56 58 56 52 49 46 46 54 51 50 47 47 46 49 53 51 51
23 32 24 26 26 30 29 45 45 34 39 42 34 40 52 56 39 35 52 55 48 48 46 52 46 52 56 52 55 53 55 58 61 56 51 46 56 50 51 52 52 50 49 52 54 60 59
27 24 26 26 32 35 35 41 35 39 38 39 37 36 40 48 53 62 49 38 55 59 54 53 61 52 55 55 59 62 61 51 58 60 54 50 61 53 53 54 55 50 54 57 55 62 57
29 28 36 37 35 38 40 43 46 37 45 40 43 45 44 43 44 44 51 48 66 46 57 68 45 53 56 52 62 62 60 61 62 59 60 55 59 56 57 58 57 51 61 57 57 62 50
43 40 35 39 38 42 47 41 41 44 46 45 52 52 53 47 48 47 50 51 50 54 58 53 57 63 54 60 67 54 55 59 50 64 62 64 61 60 60 60 60 57 61 60 59 59 55
39 39 38 39 42 43 47 48 47 46 46 54 49 52 51 53 53 52 56 54 55 54 60 67 60 53 67 31 54 60 51 61 63 56 64 69 63 65 64 64 62 61 62 63 60 63 43
44 42 45 42 43 51 47 55 46 61 57 58 61 57 55 59 57 62 63 69 59 59 62 66 59 53 52 51 50 56 58 58 68 59 59 65 70 64 65 66 71 63 66 64 61 64 56
41 55 45 49 63 50 56 50 55 54 62 53 55 55 61 61 62 63 63 67 77 75 73 65 67 58 57 61 50 49 64 73 63 70 53 60 71 70 71 73 69 72 69 67 68 58 63
48 50 52 48 59 56 55 59 71 56 60 57 74 65 68 75 74 62 75 76 75 76 66 65 65 59 66 67 59 50 54 74 58 62 67 69 66 75 69 77 77 65 75 71 66 66 67
50 56 59 53 57 60 63 66 67 62 78 74 69 68 69 80 69 77 75 76 88 84 77 68 81 68 67 70 69 60 64 65 66 46 69 64 60 61 74 76 78 77 74 80 77 71 68
66 69 56 60 77 66 61 62 66 63 82 77 77 69 77 78 85 80 81 71 88 83 91 79 90 72 82 70 68 78 72 71 73 74 69 70 62 58 59 65 81 88 84 82 87 79 75
71 58 60 68 64 68 66 77 65 72 81 82 78 78 73 86 90 84 85 90 86 87 101 97 91 81 70 75 67 82 71 80 76 83 74 74 71 68 66 66 68 85 88 94 90 88 81
80 72 73 75 66 79 77 89 95 70 79 96 78 92 96 98 100 86 94 102 80 94 110 103 107 94 85 83 91 87 81 92 93 90 85 81 82 74 80 79 76 73 81 96 95 98 87
74 90 72 75 93 78 92 88 89 76 104 92 104 96 105 104 96 89 97 98 81 106 111 114 109 100 102 93 94 88 86 96 91 94 92 91 88 86 80 80 95 85 84 92 101 102 92
86 78 92 86 84 96 91 99 88 103 97 102 112 111 108 101 96 103 106 93 109 106 120 117 108 105 109 101 102 97 101 98 92 97 97 101 97 99 90 88 94 95 101 92 98 93 108
82 102 103 93 88 104 96 112 116 111 117 116 123 82 110 106 118 96 105 108 117 120 118 111 104 107 109 105 100 96 94 96 92 95 102 101 97 100 95 90 98 100 96 91 91 89 96
98 83 107 111 116 116 102 124 123 122 112 96 122 116 124 122 117 107 114 114 113 116 115 111 107 108 96 101 101 98 92 95 95 98 104 102 101 101 95 93 100 98 91 99 97 102 98
76 116 104 122 121 126 133 134 130 134 132 130 114 133 126 117 111 122 118 125 118 113 112 110 110 105 101 99 100 95 95 94 94 93 97 99 99 99 94 88 95 93 93 94 97 101 105
114 117 127 121 89 112 120 121 123 132 131 128 125 132 127 121 122 120 121 120 115 113 108 103 104 104 101 99 96 90 90 88 88 89 91 94 94 101 99 98 101 100 100 99 101 103 101
110 122 121 113 125 120 112 132 124 130 130 126 128 126 128 118 111 117 115 116 101 96 94 89 89 91 91 88 91 91 92 94 96 98 99 70 68 65 68 69 66 63 64 64 62 58 64
126 130 118 84 133 135 132 123 133 135 137 133 127 127 115 118 106 106 105 94 90 88 92 96 96 97 96 95 97 100 83 52 55 49 49 48 50 58 59 62 59 58 55 58 56 57 63
108 124 128 122 131 133 135 133 128 135 133 126 126 103 110 113 102 93 87 86 91 96 99 98 98 99 98 74 46 49 48 47 46 47 45 48 50 54 57 59 59 56 55 58 60 61 61
132 129 132 141 138 139 136 124 135 122 120 121 101 112 98 94 86 90 89 98 101 99 98 94 92 57 82 47 47 43 44 45 46 43 44 42 49 52 55 57 58 58 58 60 62 63 62
Wind_Direction
316 341 299 277 280 282 283 273 269 251 267 276 267 270 277 257 260 275 269 274 275 275 273 274 273 273 276 277 279 278 278 280 283 286 285 284 283 279 275 277 282 269 258 256 265 274 258
308 296 278 299 294 282 286 282 275 281 284 275 277 274 267 261 267 274 277 273 271 277 280 276 277 276 276 276 278 280 283 284 280 287 286 287 274 272 270 292 266 260 256 246 255 267 250
271 15 299 279 296 293 285 289 279 298 274 284 285 276 272 270 274 261 261 267 263 266 273 276 269 272 270 276 273 268 277 284 286 289 282 279 272 270 270 262 268 261 257 242 257 258 261
284 291 292 304 269 270 296 288 296 286 274 283 279 277 281 277 288 279 272 267 276 279 277 269 269 275 269 270 273 282 282 277 274 278 283 278 279 278 273 267 258 259 258 245 257 251 256
295 303 305 306 300 16 299 285 296 292 290 286 286 285 281 287 281 279 281 281 277 277 278 278 280 276 276 272 270 270 271 275 272 273 272 282 273 276 275 269 263 258 251 245 237 263 248
292 298 296 289 296 289 299 279 302 292 279 264 291 277 294 282 285 279 286 287 278 287 285 283 282 282 281 277 277 277 276 275 277 274 269 276 271 270 275 270 267 258 252 246 239 237 249
285 329 337 300 264 274 301 295 351 287 337 308 290 296 276 293 277 289 286 277 289 288 289 282 282 279 279 281 276 277 276 278 278 271 267 268 271 270 273 272 264 256 263 248 246 252 239
297 274 322 290 321 275 294 283 294 295 298 299 309 295 293 294 303 290 289 282 279 292 297 266 297 277 277 282 282 283 282 277 276 272 271 265 264 270 274 269 265 259 259 254 252 242 242
292 291 300 312 288 327 301 332 325 310 314 319 309 298 321 286 291 286 294 324 282 293 287 290 281 280 286 279 288 279 280 282 275 272 269 270 263 265 259 271 265 259 258 257 254 247 239
279 291 304 324 315 319 319 293 291 298 304 302 296 309 306 294 317 305 287 293 283 302 286 293 288 289 281 285 274 280 286 286 277 273 271 269 267 262 261 265 266 258 257 257 254 253 246
296 282 302 321 294 313 320 315 304 318 318 292 315 317 290 314 293 294 318 293 289 293 287 313 294 291 289 294 291 265 279 271 281 277 275 269 269 265 261 261 269 262 259 256 254 256 248
294 281 290 306 307 293 314 317 316 307 313 318 308 310 316 297 301 309 287 311 307 291 285 313 313 296 291 294 293 283 258 278 278 274 267 270 267 266 267 262 263 261 260 259 257 257 256
317 299 291 304 299 311 306 314 296 321 323 306 322 320 315 322 316 315 312 315 289 293 290 316 300 307 295 302 300 287 287 262 278 277 266 272 269 266 270 265 264 259 265 258 259 256 245
282 314 293 302 315 296 307 303 316 314 318 308 292 298 298 295 290 296 292 306 313 308 310 311 317 288 310 299 297 290 282 280 281 279 265 271 267 271 268 267 264 263 260 257 254 254 251
305 291 306 306 312 313 308 314 317 297 311 302 319 313 313 311 308 295 306 310 308 310 294 307 309 301 304 284 299 290 289 277 291 281 282 278 274 259 269 268 267 269 262 265 256 256 254
299 290 306 290 289 297 309 317 316 306 314 316 313 308 304 310 299 305 306 306 313 311 308 302 311 300 302 281 304 297 300 291 277 281 283 275 277 277 257 262 269 264 259 267 263 254 252
304 307 295 298 308 302 305 302 308 295 313 314 311 301 308 306 308 305 307 296 309 305 311 305 311 300 304 296 294 302 298 295 291 284 280 279 275 270 273 264 256 262 267 259 258 262 254
301 293 293 297 299 300 296 306 291 303 311 309 308 306 299 304 304 302 302 305 306 307 310 307 306 302 285 294 280 298 281 291 286 289 281 277 270 265 277 265 263 255 257 262 258 255 259
297 291 299 301 287 304 302 306 306 288 302 308 300 306 304 302 303 300 305 308 296 304 308 304 305 302 297 293 297 297 290 292 287 286 281 275 274 270 264 274 260 259 261 256 262 258 255
295 297 292 292 300 296 303 303 302 294 304 302 303 302 303 301 301 299 303 304 291 304 304 302 301 300 298 295 295 293 288 291 286 284 282 277 275 274 274 272 270 262 253 257 257 256 259
293 290 299 299 300 299 302 302 298 301 300 300 299 301 303 300 299 300 301 297 302 300 303 300 298 298 297 296 289 286 290 289 281 281 281 281 280 276 272 274 269 265 265 260 252 259 255
298 293 294 300 298 301 299 299 300 299 301 304 304 289 301 300 301 295 297 298 303 302 300 297 297 296 296 295 292 284 279 282 281 279 278 278 277 276 273 273 267 265 262 265 256 255 252
302 296 300 300 298 299 300 301 300 300 297 295 298 297 297 298 296 296 295 298 298 299 296 296 295 296 292 285 290 282 287 284 278 276 275 276 276 272 272 269 265 265 266 261 252 259 256
291 295 299 296 299 299 297 297 296 296 294 294 292 294 294 294 293 296 295 295 297 297 297 295 288 283 281 280 280 287 281 281 279 276 275 274 274 273 273 269 267 265 263 259 259 259 259
297 296 295 297 292 298 297 297 296 294 294 295 295 295 294 294 293 295 295 295 296 297 295 284 280 280 282 282 282 281 285 286 283 282 279 279 277 276 274 271 269 268 265 263 261 260 257
297 296 296 296 295 296 294 294 295 295 294 294 295 295 293 292 295 295 294 294 288 285 284 285 285 284 284 287 289 289 288 286 284 282 280 275 272 272 272 269 267 263 260 258 253 254 257
292 293 295 283 295 295 295 293 295 294 294 293 295 292 293 294 295 295 292 287 286 287 289 290 290 290 290 290 290 289 284 280 279 278 275 270 266 266 266 264 263 261 258 256 252 252 255
295 294 295 294 294 294 294 293 294 292 291 294 293 287 290 294 292 289 288 289 288 289 291 291 290 290 290 286 281 280 280 279 277 275 271 266 262 261 260 260 260 258 254 252 253 254 255
292 294 294 293 293 293 292 290 290 292 293 293 290 290 289 290 290 290 290 290 290 292 291 288 285 280 286 283 282 280 279 278 275 272 267 263 260 259 259 258 257 256 253 251 252 252 251